Погода в Новомариинке

Россия / Томская область     57°08′15″N   86°30′18″E
темп.,
°C
ветер,
м/с
пор.,
м/с
влажн.,
%
обл.,
%
осадки,
мм/ч
давл.,
гПа
погр.,
м
31 июля, сб
сб3101:00+10юз11900 2.4 101310
04:00+9юз22900 0.0 101413
07:00+11юз239094 0.0 101582
10:00+18ююз35605 0.0 1015468
13:00+22ююз4546100 0.0 10151540
16:00+23ю45429 0.0 10141891
19:00+21ююв3755100 0.0 1013631
22:00+16ююв2871100 0.0 1013166
1 августа, вс
вс101:00+15ююв2778100 0.0 1013133
04:00+14ю2478100 0.0 101296
07:00+15ююв2475100 0.0 101295
10:00+17ююв2470100 0.0 1012177
13:00+22ю235198 0.0 1011859
16:00+18вюв138258 0.5 1011196
19:00+21ю126429 0.6 1011437
22:00+16всв118432 0.0 101111
2 августа, пн
пн201:00+14вюв119025 0.0 101012
04:00+12вюв11950 0.1 101011
07:00+14вюв24900 0.1 1010117
10:00+20юв23600 0.0 1009541
13:00+24ююв33480 0.0 10081432
16:00+26ю334330 0.0 10072060
19:00+21ююз116984 0.0 100750
22:00+17вюв248216 0.0 100758
3 августа, вт
вт301:00+14юв28860 0.0 1006142
04:00+13вюв279812 0.0 1006129
07:00+15юв249383 0.0 1006132
10:00+19ююв2379100 0.1 1006680
13:00+16юв2499100 6.1 1006230
16:00+19вюв138827 2.6 1005354
19:00+21ююв127510 3.3 1004577
22:00+16всв119585 0.4 100413
4 августа, ср
ср401:00+14всв119678 2.2 100414
04:00+14всв1199100 5.4 100429
07:00+15зсз0098100 7.5 100551
10:00+18ссз119293 1.4 1005469
13:00+20зюз218375 1.9 1005561
16:00+24зюз116417 0.6 10051021
19:00+21з249166 2.6 1005127
22:00+16зюз119499 2.3 100511